Las Vegas, NV

12:21 PM PDT on May 23, 2018 (GMT -0700)
McCarran International

Weather History for KLAS - August, 2013

Change the Weather History Date:

Monday, August 26, 2013

  Actual Average Record
Temperature  
Mean Temperature 74 °F 89 °F  
Max Temperature 76 °F 101 °F 109 °F (2001)
Min Temperature 71 °F 78 °F 55 °F (1943)
Degree Days  
Heating Degree Days 0 0  
Month to date heating degree days 0 0  
Since 1 June heating degree days 0 1  
Since 1 July heating degree days 0 0  
Cooling Degree Days 9 24  
Month to date cooling degree days 656 677  
Year to date cooling degree days 3065 2731  
Since 1 June cooling degree days 2375 2181  
Growing Degree Days 24 (Base 50)    
Moisture  
Dew Point 64 °F    
Average Humidity 72    
Maximum Humidity 79    
Minimum Humidity 64    
Precipitation  
Precipitation 0.06 in 0.01 in 0.14 in (2003)
Month to date precipitation 0.23 0.28  
Year to date precipitation 1.14 2.76  
Snow  
Snow 0.00 in 0.00 in 0.00 in ()
Month to date snowfall 0.0 0.0  
Since 1 June snowfall 0.0 0.0  
Since 1 July snowfall 0.0 0.0  
Snow Depth 0.00 in    
Sea Level Pressure  
Sea Level Pressure 29.95 in    
Wind  
Wind Speed 6 mph (South)    
Max Wind Speed 13 mph    
Max Gust Speed 15 mph    
Visibility 10 miles    
Events Rain    
T = Trace of Precipitation, MM = Missing Value Source: NWS Daily Summary

Daily Weather History Graph

Daily Weather History Graph

Search for Another Location

Airport or City:

Astronomy

Aug. 26, 2013 Rise Set
Actual Time 6:07 AM PDT 7:16 PM PDT
Civil Twilight 5:41 AM PDT 7:42 PM PDT
Nautical Twilight 5:09 AM PDT 8:14 PM PDT
Astronomical Twilight 4:36 AM PDT 8:46 PM PDT
Moon 10:42 PM PDT (8/26) 12:00 PM PDT (8/26)
Length of Visible Light 14h 01m
Length of Day
13h 08m
Waning Gibbous, 65% of the Moon is Illuminated
Aug 26
Waning Gibbous
Aug 28
Last Quarter
Sep 5
New
Sep 12
First Quarter
Sep 19
Full

Hourly Weather History & Observations

Time (PDT) Temp. Dew Point Humidity Pressure Visibility Wind Dir Wind Speed Gust Speed Precip Events Conditions
12:56 AM 75.0 °F 62.1 °F 64% 29.96 in 10.0 mi SE 4.6 mph - N/A   Overcast
1:56 AM 75.0 °F 62.1 °F 64% 29.96 in 10.0 mi SSE 4.6 mph - N/A   Overcast
2:56 AM 73.9 °F 63.0 °F 68% 29.96 in 10.0 mi South 4.6 mph - N/A   Overcast
3:56 AM 73.9 °F 63.0 °F 68% 29.97 in 10.0 mi South 5.8 mph - N/A   Overcast
4:56 AM 75.0 °F 63.0 °F 66% 29.97 in 10.0 mi South 5.8 mph - N/A   Overcast
5:56 AM 73.9 °F 63.0 °F 68% 29.98 in 10.0 mi South 4.6 mph - N/A   Mostly Cloudy
6:56 AM 73.0 °F 64.0 °F 73% 29.98 in 10.0 mi SE 6.9 mph - N/A   Overcast
7:56 AM 73.0 °F 64.9 °F 76% 29.99 in 10.0 mi SE 5.8 mph - N/A   Overcast
8:56 AM 73.9 °F 64.0 °F 71% 30.00 in 10.0 mi SSE 4.6 mph - N/A   Mostly Cloudy
9:56 AM 75.0 °F 64.0 °F 69% 30.01 in 10.0 mi SSE 6.9 mph - N/A   Mostly Cloudy
10:56 AM 75.0 °F 64.9 °F 71% 30.00 in 10.0 mi SSE 4.6 mph - 0.00 in Rain Light Rain
11:56 AM 75.0 °F 64.9 °F 71% 29.99 in 10.0 mi Calm Calm - 0.00 in Rain Light Rain
12:56 PM 73.9 °F 66.0 °F 76% 29.97 in 10.0 mi South 4.6 mph - 0.01 in Rain Light Rain
1:56 PM 73.9 °F 66.0 °F 76% 29.97 in 10.0 mi South 3.5 mph - 0.00 in Rain Light Rain
2:56 PM 73.9 °F 66.9 °F 79% 29.97 in 10.0 mi WSW 11.5 mph - 0.00 in Rain Light Rain
3:56 PM 72.0 °F 66.9 °F 84% 29.94 in 10.0 mi SW 4.6 mph - 0.05 in   Mostly Cloudy
4:56 PM 73.9 °F 64.9 °F 73% 29.91 in 10.0 mi SSW 4.6 mph - N/A   Mostly Cloudy
5:56 PM 75.0 °F 63.0 °F 66% 29.90 in 10.0 mi SSW 5.8 mph - N/A   Mostly Cloudy
6:56 PM 73.9 °F 64.9 °F 73% 29.90 in 10.0 mi WSW 8.1 mph - N/A   Mostly Cloudy
7:56 PM 73.9 °F 64.0 °F 71% 29.90 in 10.0 mi SSW 6.9 mph - N/A   Scattered Clouds
8:56 PM 73.9 °F 63.0 °F 68% 29.91 in 10.0 mi SSW 6.9 mph - N/A   Mostly Cloudy
9:56 PM 73.9 °F 64.9 °F 73% 29.91 in 10.0 mi SSW 9.2 mph - N/A   Scattered Clouds
10:56 PM 72.0 °F 64.9 °F 78% 29.91 in 10.0 mi South 10.4 mph - N/A   Mostly Cloudy
11:56 PM 72.0 °F 63.0 °F 73% 29.91 in 10.0 mi South 9.2 mph - N/A   Mostly Cloudy